This demonstration page uses our WeatherBlox Daily Observations layout. Learn more.

Left ArrowRight Arrow

44.8408, -93.29828

Hourly Observations for September 25, 2017

Temp ( °F °C ) Dew Point ( °F °C ) Humidity (%) Winds ( mph kmh ) Pressure ( in mb ) Visibility ( mi km ) Precip ( " mm )
12:40 am 00:40 Mostly Cloudy 71 21.7 67 19.4 87 87 WNW 8 13 29.94 1014 10 16 0.00 0.00
12:50 am 00:50 Mostly Cloudy 70 21 66 19 88 88 WNW 8 13 29.94 1014 10 16 0.00 0.00
12:53 am 00:53 Mostly Cloudy 70 21.1 67 19.4 90 90 W 8 13 29.92 1013 10 16 0.00 0.00
1:09 am 01:09 Mostly Cloudy 70 21.1 66 18.9 87 87 NW 12 19 29.94 1014 10 16 0.00 0.00
1:27 am 01:27 Cloudy 69 20.6 66 18.9 90 90 NW 8 13 29.94 1014 10 16 0.00 0.00
1:53 am 01:53 Cloudy 68 20 64 17.8 87 87 WNW 7 11 29.93 1013 10 16 0.00 0.03
2:46 am 02:46 Cloudy with Nearby Thunderstorms 66 18.9 65 18.3 96 96 W 6 9 29.94 1014 9 14 0.02 0.51
2:53 am 02:53 Cloudy with Nearby Thunderstorms 66 18.9 65 18.3 96 96 W 9 15 29.94 1014 4 6 0.03 0.76
2:58 am 02:58 Cloudy with Heavy Rain 66 18.9 65 18.3 96 96 W 8 13 29.94 1014 2 3 0.05 1.27
3:03 am 03:03 Cloudy with Thunderstorms 66 18.9 65 18.3 96 96 W 9 15 29.94 1014 1 2 0.08 2.03
3:14 am 03:14 Cloudy with Thunderstorms 65 18.3 65 18.3 100 100 W 14 22 29.94 1014 2 2 0.12 3.05
3:17 am 03:17 Cloudy with Thunderstorms 65 18.3 65 18.3 100 100 WSW 7 11 29.94 1014 3 5 0.12 3.05
3:24 am 03:24 Cloudy with Light Rain 65 18.3 65 18.3 100 100 VRB 5 7 29.94 1014 10 16 0.12 3.05
3:53 am 03:53 Cloudy with Light Rain 65 18.3 65 18.3 100 100 NNW 7 11 29.92 1013 10 16 0.16 4.06
4:00 am 04:00 Cloudy with Rain 65 18.3 65 18.3 100 100 NNW 8 13 29.94 1014 10 16 0.01 0.25
4:25 am 04:25 Cloudy with Light Rain 64 17.8 64 17.8 100 100 NNW 7 11 29.94 1014 10 16 0.03 0.76
4:53 am 04:53 Cloudy with Light Rain 64 17.8 63 17.2 96 96 NW 10 17 29.93 1014 10 16 0.04 1.02
5:02 am 05:02 Cloudy with Nearby Thunderstorms 63 17.2 63 17.2 100 100 W 8 13 29.94 1014 10 16 0.00 0.03
5:09 am 05:09 Cloudy with Thunderstorms 63 17.2 62 16.7 97 97 WNW 8 13 29.94 1014 10 16 0.00 0.03
5:24 am 05:24 Cloudy with Nearby Thunderstorms 62 16.7 62 16.7 100 100 NNW 12 19 29.94 1014 7 11 0.01 0.25
5:35 am 05:35 Cloudy with Light Rain 62 16.7 62 16.7 100 100 NNW 8 13 29.94 1014 10 16 0.02 0.51
5:47 am 05:47 Cloudy with Heavy Rain 63 17 61 16 94 94 NNW 9 15 29.94 1014 2 3 0.05 1.27
5:53 am 05:53 Cloudy with Rain 61 16.1 61 16.1 100 100 NW 9 15 29.96 1014 2 2 0.08 2.03
6:00 am 06:00 Cloudy with Light Rain 61 16.1 61 16.1 100 100 NNW 9 15 29.94 1014 3 5 0.04 1.02
6:10 am 06:10 Cloudy with Light Rain 61 16.1 61 16.1 100 100 VRB 6 9 29.94 1014 10 16 0.04 1.02
6:53 am 06:53 Cloudy 61 16.1 60 15.6 97 97 NNW 7 11 29.97 1015 10 16 0.05 1.27
7:14 am 07:14 Cloudy 60 15.6 60 15.6 100 100 NNW 7 11 29.97 1015 10 16 0.00 0.00
7:53 am 07:53 Cloudy 60 15.6 59 15 96 96 NNW 8 13 29.98 1015 10 16 0.00 0.00
7:58 am 07:58 Cloudy 60 15.6 59 15 96 96 NNW 6 9 29.97 1015 10 16 0.00 0.00
8:53 am 08:53 Cloudy 60 15.6 59 15 96 96 NNW 8 13 30.00 1016 10 16 0.00 0.00
9:08 am 09:08 Cloudy 60 15.6 59 15 96 96 NW 10 17 29.97 1015 10 16 0.00 0.00
9:47 am 09:47 Cloudy 61 16 57 14 88 88 NNW 8 13 29.97 1015 10 16 0.00 0.00
9:53 am 09:53 Cloudy 60 15.6 58 14.4 93 93 NNW 10 17 29.99 1016 10 16 0.00 0.00
10:53 am 10:53 Cloudy 61 16.1 59 15 93 93 NNW 10 17 29.99 1016 10 16 0.00 0.00
11:00 am 11:00 Cloudy 60 15.6 58 14.4 93 93 N 9 15 29.97 1015 10 16 0.00 0.00
11:53 am 11:53 Cloudy 61 16.1 59 15 93 93 NNE 8 13 29.98 1015 10 16 0.00 0.03
12:35 pm 12:35 Cloudy 61 16.1 58 14.4 90 90 NNE 7 11 29.97 1015 10 16 0.00 0.00
12:53 pm 12:53 Cloudy 62 16.7 59 15 90 90 NNW 7 11 29.99 1016 10 16 0.00 0.00
1:53 pm 13:53 Cloudy 63 17.2 59 15 87 87 NNW 8 13 29.98 1015 10 16 0.00 0.00
2:53 pm 14:53 Cloudy 62 16.7 59 15 90 90 NNW 10 17 29.97 1015 10 16 0.00 0.00
3:53 pm 15:53 Cloudy 61 16.1 58 14.4 90 90 NNW 12 19 29.95 1014 10 16 0.00 0.00
4:53 pm 16:53 Cloudy 62 16.7 57 13.9 84 84 N 10 17 29.97 1015 10 16 0.00 0.00
5:53 pm 17:53 Cloudy 61 16.1 57 13.9 87 87 N 9 15 29.98 1015 10 16 0.00 0.00
6:53 pm 18:53 Cloudy with Light Rain 60 15.6 57 13.9 90 90 N 10 17 29.97 1015 10 16 0.00 0.03
7:53 pm 19:53 Cloudy with Light Rain 60 15.6 58 14.4 93 93 NNE 9 15 29.97 1015 10 16 0.00 0.03
8:53 pm 20:53 Cloudy with Light Rain 59 15 58 14.4 96 96 N 6 9 29.99 1016 10 16 0.01 0.25
9:53 pm 21:53 Cloudy 59 15 58 14.4 96 96 N 6 9 29.97 1015 10 16 0.02 0.51
10:53 pm 22:53 Cloudy 59 15 58 14.4 96 96 NNW 8 13 29.97 1015 10 16 0.01 0.25
11:37 pm 23:37 Cloudy 58 14.4 58 14.4 100 100 N 7 11 29.94 1014 10 16 0.00 0.00
11:45 pm 23:45 Cloudy 58 14.4 58 14.4 100 100 NNW 7 11 29.94 1014 10 16 0.00 0.00
11:53 pm 23:53 Cloudy with Light Rain 58 14.4 58 14.4 100 100 NNW 7 11 29.95 1014 10 16 0.00 0.03

Powered by AerisWeather